ISR701 LLBG-LROP

Flight info

Callsign ISR701
Flight time N/A
Altitude 38000
Route DAFNA W13 VELOX N71 DESPO DCT VOLBE DCT VESAR UL619 MAKOL L619 WRN L744 ELRUR L602 KOMAN/N0328F100 L622 OBUGA
Aircraft A320/M-SDE2FGHIJ1LORVWY/L

Departure

Time N/A
Airport Ben Gurion International Airport (LLBG)

Arrival

Time 2026-05-01 15:29
Airport Bucharest Henri Coandă International Airport (LROP)
Time Latitude Longitude Altitude Speed Heading
2026-05-01 15:08 43.95406 26.26613 19215 ft 369 kts 309°
2026-05-01 15:08 43.97026 26.23872 18689 ft 366 kts 310°
2026-05-01 15:08 43.98779 26.21340 18156 ft 363 kts 320°
2026-05-01 15:09 44.00793 26.19258 17615 ft 360 kts 326°
2026-05-01 15:09 44.02839 26.17277 17062 ft 357 kts 326°
2026-05-01 15:09 44.04806 26.15369 16534 ft 354 kts 326°
2026-05-01 15:09 44.06821 26.13410 15985 ft 352 kts 326°
2026-05-01 15:10 44.08799 26.11368 15427 ft 349 kts 319°
2026-05-01 15:10 44.11640 26.05966 14321 ft 348 kts 295°
2026-05-01 15:10 44.12437 26.02774 13711 ft 349 kts 289°
2026-05-01 15:11 44.13166 25.99574 13161 ft 346 kts 290°
2026-05-01 15:11 44.14626 25.93192 12064 ft 341 kts 290°
2026-05-01 15:11 44.15356 25.90019 11513 ft 339 kts 290°
2026-05-01 15:12 44.16072 25.86900 10973 ft 337 kts 290°
2026-05-01 15:12 44.17683 25.81077 10604 ft 301 kts 307°
2026-05-01 15:12 44.19070 25.79007 10476 ft 286 kts 325°
2026-05-01 15:13 44.24494 25.76767 9996 ft 273 kts 353°
2026-05-01 15:14 44.28288 25.75979 9298 ft 275 kts 353°
2026-05-01 15:14 44.30191 25.75579 8805 ft 279 kts 352°
2026-05-01 15:14 44.33963 25.74784 8228 ft 272 kts 352°
2026-05-01 15:15 44.37651 25.74007 7371 ft 261 kts 353°
2026-05-01 15:15 44.41275 25.73243 7301 ft 264 kts 352°
2026-05-01 15:16 44.44913 25.72477 7311 ft 265 kts 352°
2026-05-01 15:16 44.48553 25.71710 7262 ft 263 kts 352°
2026-05-01 15:17 44.51412 25.70594 7015 ft 251 kts 326°
2026-05-01 15:18 44.53248 25.64614 6608 ft 221 kts 267°
2026-05-01 15:18 44.52930 25.62505 6363 ft 220 kts 255°
2026-05-01 15:19 44.51404 25.56459 5636 ft 216 kts 238°
2026-05-01 15:19 44.48844 25.54461 5571 ft 221 kts 176°
2026-05-01 15:19 44.47393 25.55030 5526 ft 217 kts 145°
2026-05-01 15:20 44.45930 25.58435 5435 ft 208 kts 88°
2026-05-01 15:20 44.46204 25.60380 5390 ft 204 kts 61°
2026-05-01 15:20 44.47057 25.61926 5332 ft 201 kts 41°
2026-05-01 15:21 44.48077 25.63271 5213 ft 201 kts 42°
2026-05-01 15:21 44.49093 25.64621 5095 ft 201 kts 42°
2026-05-01 15:21 44.50108 25.65976 4974 ft 201 kts 42°
2026-05-01 15:21 44.51132 25.67350 4838 ft 201 kts 43°
2026-05-01 15:22 44.53091 25.70158 4385 ft 204 kts 56°
2026-05-01 15:22 44.53662 25.71939 4125 ft 205 kts 73°
2026-05-01 15:22 44.53870 25.73962 3787 ft 209 kts 82°
2026-05-01 15:23 44.54011 25.75997 3471 ft 210 kts 82°
2026-05-01 15:23 44.54164 25.78023 3185 ft 209 kts 82°
2026-05-01 15:23 44.54323 25.80052 2902 ft 210 kts 82°
2026-05-01 15:23 44.54485 25.82099 2607 ft 212 kts 82°
2026-05-01 15:24 44.54642 25.84115 2502 ft 202 kts 82°
2026-05-01 15:24 44.54789 25.86003 2531 ft 187 kts 82°
2026-05-01 15:24 44.54925 25.87743 2529 ft 174 kts 82°
2026-05-01 15:24 44.55052 25.89368 2495 ft 159 kts 82°
2026-05-01 15:25 44.55166 25.90832 2395 ft 146 kts 82°
2026-05-01 15:25 44.55274 25.92222 2254 ft 141 kts 82°
2026-05-01 15:25 44.55380 25.93581 2131 ft 137 kts 82°
2026-05-01 15:26 44.55518 25.95349 1901 ft 135 kts 82°
2026-05-01 15:26 44.55894 26.00188 1296 ft 136 kts 82°
2026-05-01 15:27 44.55932 26.00616 1235 ft 136 kts 82°
2026-05-01 15:27 44.56097 26.02864 974 ft 135 kts 84°
2026-05-01 15:27 44.56185 26.04172 806 ft 135 kts 83°
2026-05-01 15:28 44.56399 26.06777 478 ft 134 kts 84°
2026-05-01 15:28 44.56500 26.08088 347 ft 133 kts 83°
2026-05-01 15:28 44.56579 26.09227 319 ft 96 kts 83°
2026-05-01 15:29 44.56670 26.10404 323 ft 49 kts 84°
2026-05-01 15:29 44.56694 26.10702 322 ft 17 kts 82°
2026-05-01 15:29 44.56869 26.10750 322 ft 17 kts 353°
2026-05-01 15:30 44.57070 26.10537 322 ft 22 kts 286°
2026-05-01 15:31 44.56993 26.09543 322 ft 29 kts 264°
2026-05-01 15:31 44.56946 26.08947 322 ft 32 kts 264°
2026-05-01 15:32 44.56891 26.08452 321 ft 17 kts 272°
2026-05-01 15:32 44.56951 26.08210 321 ft 6 kts 327°
2026-05-01 15:33 44.57024 26.08197 323 ft 2 kts 355°
2026-05-01 15:34 44.57027 26.08197 323 ft 0 kts 355°